FW2255 Weather Reports


Display with metric or nautical units.
time (UTC)temp
F
wind
direction
speed
MPH
gust
MPH
rain 1hr
in
rain 24hr
in
rain mn
in
humidity
%
barometer
mb
20260504151055 65 159 2.0 4.0 0.00 0.00 0.00 36 1014.4
20260504150557 65 159 1.0 4.0 0.00 0.00 0.00 38 1014.5
20260504141054 60 0 1.0 3.0 0.00 0.00 0.00 44 1014.7
20260504140555 60 0 0.0 3.0 0.00 0.00 0.00 47 1014.7
20260504130559 53 0 0.0 0.0 0.00 0.00 0.00 48 1015.4
20260504110554 48 0 0.0 0.0 0.00 0.00 0.00 57 1015.7
20260504100554 49 0 0.0 0.0 0.00 0.00 0.00 52 1015.5
20260504081555 51 0 0.0 0.0 0.00 0.00 0.00 48 1016.0
20260504081054 51 0 0.0 0.0 0.00 0.00 0.00 49 1015.9
20260504080554 51 0 0.0 0.0 0.00 0.00 0.00 49 1016.0
20260504050557 47 0 0.0 0.0 0.00 0.00 0.00 57 1016.1
20260504045556 47 0 0.0 0.0 0.00 0.00 0.00 57 1016.1
20260504045056 47 0 0.0 0.0 0.00 0.00 0.00 58 1016.2
20260504044603 47 0 0.0 0.0 0.00 0.00 0.00 57 1016.2
20260504044056 47 0 0.0 0.0 0.00 0.00 0.00 56 1016.2
20260504043556 47 0 0.0 0.0 0.00 0.00 0.00 56 1016.1
20260504043057 47 0 0.0 0.0 0.00 0.00 0.00 56 1016.1
20260504042556 47 0 0.0 0.0 0.00 0.00 0.00 56 1016.0
20260504042055 46 0 0.0 0.0 0.00 0.00 0.00 56 1015.9
20260504041556 46 0 0.0 0.0 0.00 0.00 0.00 56 1015.9
20260504041055 46 0 0.0 0.0 0.00 0.00 0.00 56 1015.9
20260504040600 46 0 0.0 0.0 0.00 0.00 0.00 55 1015.9
20260504040058 46 0 0.0 0.0 0.00 0.00 0.00 55 1015.9
20260504035556 46 0 0.0 0.0 0.00 0.00 0.00 54 1016.1
20260504035056 47 0 0.0 0.0 0.00 0.00 0.00 54 1016.2
20260504034611 47 0 0.0 0.0 0.00 0.00 0.00 53 1016.2
20260504034056 47 0 0.0 0.0 0.00 0.00 0.00 53 1016.1
20260504033556 47 0 0.0 0.0 0.00 0.00 0.00 52 1016.1
20260504033100 47 0 0.0 0.0 0.00 0.00 0.00 52 1016.0
20260504032556 47 0 0.0 0.0 0.00 0.00 0.00 51 1016.0
20260504032056 48 0 0.0 0.0 0.00 0.00 0.00 51 1016.0
20260504031603 48 0 0.0 0.0 0.00 0.00 0.00 50 1015.9
20260504031056 48 0 0.0 0.0 0.00 0.00 0.00 49 1016.0
20260504030556 48 0 0.0 0.0 0.00 0.00 0.00 49 1016.1
20260504025556 48 0 0.0 0.0 0.00 0.00 0.00 47 1015.9
20260504025056 48 0 0.0 0.0 0.00 0.00 0.00 47 1015.9
20260504024608 48 0 0.0 0.0 0.00 0.00 0.00 46 1015.9
20260504024055 48 0 0.0 0.0 0.00 0.00 0.00 45 1015.8
20260504023556 49 0 0.0 0.0 0.00 0.00 0.00 45 1015.9
20260504023100 49 0 0.0 0.0 0.00 0.00 0.00 44 1015.9
20260504022556 49 0 0.0 0.0 0.00 0.00 0.00 44 1015.9
20260504022056 49 0 0.0 0.0 0.00 0.00 0.00 43 1015.9
20260504021557 49 0 0.0 0.0 0.00 0.00 0.00 43 1015.8
20260504021057 49 0 0.0 0.0 0.00 0.00 0.00 43 1015.7
20260504020557 49 0 0.0 0.0 0.00 0.00 0.00 42 1015.8
20260504020056 50 0 0.0 0.0 0.00 0.00 0.00 41 1015.8
20260504015556 50 0 0.0 0.0 0.00 0.00 0.00 41 1015.7
20260504015056 50 0 0.0 0.0 0.00 0.00 0.00 40 1015.7
20260504014606 50 0 0.0 0.0 0.00 0.00 0.00 40 1015.6
20260504014055 50 0 0.0 0.0 0.00 0.00 0.00 40 1015.5
20260504013557 51 0 0.0 0.0 0.00 0.00 0.00 39 1015.5
20260504013056 51 0 0.0 0.0 0.00 0.00 0.00 40 1015.4
20260504012556 51 0 0.0 1.0 0.00 0.00 0.00 40 1015.4
20260504012056 51 0 0.0 1.0 0.00 0.00 0.00 39 1015.2
20260504011559 52 0 0.0 0.0 0.00 0.00 0.00 39 1015.3
20260504011055 52 0 0.0 0.0 0.00 0.00 0.00 38 1015.1
20260504010555 52 0 0.0 0.0 0.00 0.00 0.00 38 1015.1
20260504010100 53 0 0.0 0.0 0.00 0.00 0.00 37 1015.1
20260504005555 53 0 0.0 0.0 0.00 0.00 0.00 36 1015.1
20260504005055 53 0 0.0 0.0 0.00 0.00 0.00 36 1015.1
20260504004558 54 0 0.0 0.0 0.00 0.00 0.00 36 1015.0
20260504004056 54 0 0.0 0.0 0.00 0.00 0.00 35 1015.1
20260504003558 55 0 0.0 0.0 0.00 0.00 0.00 35 1015.0
20260504003100 55 0 0.0 0.0 0.00 0.00 0.00 37 1014.9
20260504002556 56 0 0.0 0.0 0.00 0.00 0.00 31 1014.9
20260504002057 56 0 0.0 0.0 0.00 0.00 0.00 30 1014.9
20260504001604 56 0 0.0 0.0 0.00 0.00 0.00 30 1014.9
20260504001057 57 0 0.0 0.0 0.00 0.00 0.00 29 1014.9
20260504000555 57 0 0.0 0.0 0.00 0.00 0.00 30 1014.8
20260504000058 58 0 0.0 0.0 0.00 0.00 0.00 31 1014.7
20260503235555 58 0 0.0 0.0 0.00 0.00 0.00 32 1014.7
20260503235057 59 0 0.0 0.0 0.00 0.00 0.00 30 1014.7
20260503234556 59 0 0.0 0.0 0.00 0.00 0.00 28 1014.7
20260503234056 60 0 0.0 0.0 0.00 0.00 0.00 27 1014.7
20260503233556 60 0 0.0 0.0 0.00 0.00 0.00 27 1014.6
20260503233054 60 0 0.0 0.0 0.00 0.00 0.00 27 1014.6
20260503232555 60 0 0.0 0.0 0.00 0.00 0.00 26 1014.5
20260503232058 61 0 0.0 1.0 0.00 0.00 0.00 28 1014.5
20260503231555 61 0 0.0 2.0 0.00 0.00 0.00 28 1014.5
20260503231056 61 0 0.0 2.0 0.00 0.00 0.00 25 1014.5
20260503230556 61 0 0.0 0.0 0.00 0.00 0.00 24 1014.5
20260503230058 61 0 0.0 0.0 0.00 0.00 0.00 28 1014.4
20260503225556 62 0 0.0 2.0 0.00 0.00 0.00 29 1014.4
20260503225056 62 0 0.0 2.0 0.00 0.00 0.00 29 1014.5
20260503224554 62 0 0.0 2.0 0.00 0.00 0.00 26 1014.5
20260503224056 62 0 0.0 2.0 0.00 0.00 0.00 25 1014.5
20260503223555 63 0 0.0 2.0 0.00 0.00 0.00 24 1014.5
20260503223057 63 306 1.0 2.0 0.00 0.00 0.00 24 1014.4
20260503222555 63 298 0.0 2.0 0.00 0.00 0.00 26 1014.4
20260503222056 63 0 0.0 2.0 0.00 0.00 0.00 20 1014.5
20260503221558 63 0 0.0 4.0 0.00 0.00 0.00 22 1014.6
20260503221055 64 0 0.0 4.0 0.00 0.00 0.00 17 1014.6
20260503220556 64 0 1.0 4.0 0.00 0.00 0.00 18 1014.6
20260503220059 63 0 0.0 4.0 0.00 0.00 0.00 19 1014.6
20260503215555 63 221 0.0 6.0 0.00 0.00 0.00 22 1014.5
20260503215055 63 345 2.0 10.0 0.00 0.00 0.00 17 1014.5
20260503214555 63 351 1.0 10.0 0.00 0.00 0.00 18 1014.7
20260503214055 63 55 3.0 6.0 0.00 0.00 0.00 17 1014.6
20260503213555 63 319 1.0 5.0 0.00 0.00 0.00 19 1014.7
20260503213107 63 327 0.0 8.0 0.00 0.00 0.00 20 1014.7
20260503212558 63 22 2.0 8.0 0.00 0.00 0.00 18 1014.7
20260503212055 63 0 1.0 6.0 0.00 0.00 0.00 18 1014.9
20260503211554 63 326 0.0 6.0 0.00 0.00 0.00 19 1014.7
20260503211056 63 0 1.0 7.0 0.00 0.00 0.00 23 1014.7
20260503210556 63 37 3.0 10.0 0.00 0.00 0.00 18 1014.8
20260503205556 63 0 1.0 4.0 0.00 0.00 0.00 19 1014.8
20260503205058 62 221 1.0 10.0 0.00 0.00 0.00 20 1014.9
20260503204555 62 15 0.0 10.0 0.00 0.00 0.00 19 1014.8
20260503204058 62 23 1.0 7.0 0.00 0.00 0.00 19 1015.0
20260503203555 62 51 1.0 6.0 0.00 0.00 0.00 17 1014.9
20260503203103 63 15 2.0 6.0 0.00 0.00 0.00 18 1015.0
20260503202558 62 319 1.0 5.0 0.00 0.00 0.00 21 1015.0
20260503202058 62 254 0.0 4.0 0.00 0.00 0.00 25 1015.0
20260503201555 62 294 0.0 5.0 0.00 0.00 0.00 25 1015.1
20260503201055 62 277 1.0 6.0 0.00 0.00 0.00 21 1015.2
20260503200559 62 286 1.0 6.0 0.00 0.00 0.00 24 1015.4
20260503200058 62 323 1.0 8.0 0.00 0.00 0.00 20 1015.4
20260503195555 62 193 0.0 8.0 0.00 0.00 0.00 23 1015.6
20260503195055 63 5 1.0 7.0 0.00 0.00 0.00 21 1015.6
20260503194555 63 319 0.0 9.0 0.00 0.00 0.00 25 1015.7
20260503194131 63 0 0.0 9.0 0.00 0.00 0.00 22 1015.7
20260503193555 63 351 4.0 9.0 0.00 0.00 0.00 19 1015.8
20260503193111 62 180 1.0 4.0 0.00 0.00 0.00 25 1015.8
20260503192554 62 173 1.0 5.0 0.00 0.00 0.00 23 1015.8
20260503192055 62 55 1.0 5.0 0.00 0.00 0.00 19 1015.9
20260503191608 62 313 2.0 5.0 0.00 0.00 0.00 22 1016.1
20260503191056 62 205 1.0 7.0 0.00 0.00 0.00 22 1016.1
20260503190555 62 0 2.0 7.0 0.00 0.00 0.00 23 1016.0
20260503190100 62 120 0.0 11.0 0.00 0.00 0.00 26 1016.1
20260503185555 61 157 3.0 11.0 0.00 0.00 0.00 21 1016.3
20260503185058 61 54 3.0 11.0 0.00 0.00 0.00 21 1016.4
20260503184611 61 0 1.0 6.0 0.00 0.00 0.00 23 1016.4
20260503184055 60 255 0.0 9.0 0.00 0.00 0.00 21 1016.4
20260503183555 60 271 3.0 9.0 0.00 0.00 0.00 20 1016.5
20260503183109 60 10 2.0 9.0 0.00 0.00 0.00 21 1016.6
20260503182558 60 31 2.0 12.0 0.00 0.00 0.00 21 1016.7
20260503182057 60 307 1.0 12.0 0.00 0.00 0.00 21 1016.8
20260503181614 60 15 5.0 12.0 0.00 0.00 0.00 20 1016.7
20260503181055 60 329 2.0 10.0 0.00 0.00 0.00 21 1016.8
20260503180555 60 17 3.0 9.0 0.00 0.00 0.00 21 1016.9
20260503180057 60 16 3.0 14.0 0.00 0.00 0.00 22 1016.9
20260503175555 59 278 4.0 14.0 0.00 0.00 0.00 20 1016.8
20260503175059 59 263 0.0 9.0 0.00 0.00 0.00 21 1017.0
20260503174603 59 342 2.0 9.0 0.00 0.00 0.00 24 1017.1
20260503174056 59 296 2.0 9.0 0.00 0.00 0.00 20 1017.1
20260503173556 59 279 3.0 10.0 0.00 0.00 0.00 24 1017.2
20260503173103 59 273 1.0 10.0 0.00 0.00 0.00 24 1017.2
20260503172555 59 317 3.0 10.0 0.00 0.00 0.00 25 1016.9
20260503172055 59 275 2.0 11.0 0.00 0.00 0.00 23 1017.2
20260503171607 59 333 2.0 11.0 0.00 0.00 0.00 23 1017.1
20260503171056 59 301 3.0 11.0 0.00 0.00 0.00 24 1017.3
20260503170555 58 308 3.0 12.0 0.00 0.00 0.00 23 1017.3